Regional Weather Roundup
Issued by NWS

Home | Current Version | Previous Version | Text Only | Print | Product List | Glossary On
Versions: 1 2 3 4 5 6 7 8 9 10 11 12 13 14 15 16 17 18 19 20 21 22 23 24 25 26 27 28 29 30 31 32 33 34 35 36 37 38 39 40 41 42 43 44 45 46 47 48 49 50
000
ASPQ40 PGUM 261212
RWRPQ
WEATHER ROUNDUP FOR THE MARIANAS AND MICRONESIA
NATIONAL WEATHER SERVICE TIYAN GU
1000 PM CHST SUN FEB 26 2017

GUZ001>004-261300-
MARIANA ISLANDS-

CITY           SKY/WX    TMP DP  RH WIND       PRES   REMARKS
GUAM AIRPORT   PTCLDY    81  75  83 NE12      29.93R
ANDERSEN AFB   CLEAR     79  73  83 E16       29.94R
ROTA AIRPORT   NOT AVBL
TINIAN AP      NOT AVBL
SAIPAN AP      PTCLDY    79  75  89 NE14      29.94R

$$

PMZ161-261300-
REPUBLIC OF PALAU-

CITY           SKY/WX    TMP DP  RH WIND       PRES   REMARKS
KOROR AP       MOCLDY    79  77  94 NE5       29.84R
KOROR WSO      MOCLDY    81  77  89 E7        29.85R

$$

PMZ171>174-261300-
FEDERATED STATES OF MICRONESIA-

CITY           SKY/WX    TMP DP  RH WIND       PRES   REMARKS
YAP AIRPORT    CLOUDY    81  75  83 VRB6      29.84R
CHUUK AP       MOCLDY    81  77  89 NE9       29.81S
POHNPEI AP     CLOUDY    82  77  83 NE17G26   29.78S HX  91
POHNPEI WSO    CLOUDY    82  73  74 E10       29.83S
KOSRAE AP      NOT AVBL

$$

PMZ181-261300-
REPUBLIC OF THE MARSHALL ISLANDS-

CITY           SKY/WX    TMP DP  RH WIND       PRES   REMARKS
KWAJALEIN AP   PTCLDY    82  73  74 E21       29.81S
MAJURO AP      NOT AVBL
MAJURO WSO     CLOUDY    82  75  78 NE17      29.78S

$$




USA.gov is the U.S. government's official web portal to all federal, state and local government web resources and services.